Time,TemperatureF,DewpointF,PressureIn,WindDirection,WindDirectionDegrees,WindSpeedMPH,WindSpeedGustMPH,Humidity,HourlyPrecipIn,Conditions,Clouds,dailyrainin,SoftwareType,DateUTC
2013-03-01 00:02:00,34.5,6.3,30.38,NW,314,0.0,0.0,30,0.00,,,0.00,LWC V2.11 B50,2013-03-01 07:02:00,
2013-03-01 00:07:00,34.2,5.3,30.39,NW,314,0.0,0.0,29,0.00,,,0.00,LWC V2.11 B50,2013-03-01 07:07:00,
2013-03-01 00:12:00,33.9,5.8,30.39,NW,314,0.0,0.0,30,0.00,,,0.00,LWC V2.11 B50,2013-03-01 07:12:00,
2013-03-01 00:17:00,33.5,5.4,30.40,NW,314,0.0,0.0,30,0.00,,,0.00,LWC V2.11 B50,2013-03-01 07:17:00,
2013-03-01 00:22:00,33.0,5.0,30.40,NW,314,0.0,0.0,30,0.00,,,0.00,LWC V2.11 B50,2013-03-01 07:22:00,
2013-03-01 00:27:00,32.8,5.5,30.40,NW,314,0.0,0.0,31,0.00,,,0.00,LWC V2.11 B50,2013-03-01 07:27:00,
2013-03-01 00:32:00,33.0,5.7,30.40,NW,314,0.0,0.0,31,0.00,,,0.00,LWC V2.11 B50,2013-03-01 07:32:00,
2013-03-01 00:37:00,33.1,5.8,30.40,NW,314,0.0,0.0,31,0.00,,,0.00,LWC V2.11 B50,2013-03-01 07:37:00,
2013-03-01 00:42:00,33.2,5.9,30.40,NW,314,0.0,0.0,31,0.00,,,0.00,LWC V2.11 B50,2013-03-01 07:42:00,
2013-03-01 00:47:00,33.3,6.0,30.41,NW,314,0.0,1.0,31,0.00,,,0.00,LWC V2.11 B50,2013-03-01 07:47:00,
2013-03-01 00:52:00,33.4,5.3,30.41,NW,314,0.0,0.0,30,0.00,,,0.00,LWC V2.11 B50,2013-03-01 07:52:00,
2013-03-01 00:57:00,33.3,5.3,30.40,NW,314,0.0,0.0,30,0.00,,,0.00,LWC V2.11 B50,2013-03-01 07:57:00,
2013-03-01 01:02:00,32.9,4.9,30.40,NW,314,0.0,0.0,30,0.00,,,0.00,LWC V2.11 B50,2013-03-01 08:02:00,
2013-03-01 01:07:00,32.8,5.5,30.40,NW,314,0.0,0.0,31,0.00,,,0.00,LWC V2.11 B50,2013-03-01 08:07:00,
2013-03-01 01:12:00,32.9,6.3,30.40,NW,314,0.0,0.0,32,0.00,,,0.00,LWC V2.11 B50,2013-03-01 08:12:00,
2013-03-01 01:17:00,33.0,6.4,30.40,NE,35,2.0,2.0,32,0.00,,,0.00,LWC V2.11 B50,2013-03-01 08:17:00,
2013-03-01 01:22:00,33.5,6.8,30.40,NNE,21,0.0,0.0,32,0.00,,,0.00,LWC V2.11 B50,2013-03-01 08:22:00,
2013-03-01 01:27:00,33.9,6.5,30.40,NNW,348,0.0,0.0,31,0.00,,,0.00,LWC V2.11 B50,2013-03-01 08:27:00,
2013-03-01 01:32:00,33.9,6.5,30.40,NNW,348,0.0,0.0,31,0.00,,,0.00,LWC V2.11 B50,2013-03-01 08:32:00,
2013-03-01 01:37:00,33.6,5.5,30.40,NNW,348,0.0,0.0,30,0.00,,,0.00,LWC V2.11 B50,2013-03-01 08:37:00,
2013-03-01 01:42:00,33.2,5.2,30.40,WNW,290,0.0,1.0,30,0.00,,,0.00,LWC V2.11 B50,2013-03-01 08:42:00,
2013-03-01 01:47:00,32.8,5.5,30.39,WNW,290,0.0,0.0,31,0.00,,,0.00,LWC V2.11 B50,2013-03-01 08:47:00,
2013-03-01 01:52:00,32.6,6.0,30.39,WNW,290,0.0,0.0,32,0.00,,,0.00,LWC V2.11 B50,2013-03-01 08:52:00,
2013-03-01 01:57:00,32.5,6.0,30.39,WNW,290,0.0,0.0,32,0.00,,,0.00,LWC V2.11 B50,2013-03-01 08:57:00,
2013-03-01 02:02:00,32.5,6.6,30.40,WNW,290,0.0,0.0,33,0.00,,,0.00,LWC V2.11 B50,2013-03-01 09:02:00,
2013-03-01 02:07:00,32.4,6.5,30.40,WSW,255,0.0,0.0,33,0.00,,,0.00,LWC V2.11 B50,2013-03-01 09:07:00,
2013-03-01 02:12:00,32.6,6.7,30.39,WNW,301,0.0,4.0,33,0.00,,,0.00,LWC V2.11 B50,2013-03-01 09:12:00,
2013-03-01 02:17:00,32.9,7.0,30.40,NE,52,3.0,4.0,33,0.00,,,0.00,LWC V2.11 B50,2013-03-01 09:17:00,
2013-03-01 02:22:00,33.6,8.3,30.40,NNE,27,0.0,3.0,34,0.00,,,0.00,LWC V2.11 B50,2013-03-01 09:22:00,
2013-03-01 02:27:00,34.4,8.3,30.40,NE,36,0.0,2.0,33,0.00,,,0.00,LWC V2.11 B50,2013-03-01 09:27:00,
2013-03-01 02:32:00,34.6,7.8,30.40,North,355,0.0,0.0,32,0.00,,,0.00,LWC V2.11 B50,2013-03-01 09:32:00,
2013-03-01 02:37:00,34.4,8.3,30.40,North,355,0.0,0.0,33,0.00,,,0.00,LWC V2.11 B50,2013-03-01 09:37:00,
2013-03-01 02:42:00,34.1,8.0,30.40,NNW,333,0.0,1.0,33,0.00,,,0.00,LWC V2.11 B50,2013-03-01 09:42:00,
2013-03-01 02:47:00,33.9,7.9,30.40,NNW,333,0.0,0.0,33,0.00,,,0.00,LWC V2.11 B50,2013-03-01 09:47:00,
2013-03-01 02:52:00,33.7,8.4,30.40,NNW,333,0.0,0.0,34,0.00,,,0.00,LWC V2.11 B50,2013-03-01 09:52:00,
2013-03-01 02:57:00,33.5,8.2,30.39,NNW,333,0.0,0.0,34,0.00,,,0.00,LWC V2.11 B50,2013-03-01 09:57:00,
2013-03-01 03:02:00,33.4,8.1,30.39,NNW,333,0.0,0.0,34,0.00,,,0.00,LWC V2.11 B50,2013-03-01 10:02:00,
2013-03-01 03:07:00,33.2,7.9,30.40,NNW,333,0.0,0.0,34,0.00,,,0.00,LWC V2.11 B50,2013-03-01 10:07:00,
2013-03-01 03:12:00,32.8,7.6,30.40,NNW,333,0.0,0.0,34,0.00,,,0.00,LWC V2.11 B50,2013-03-01 10:12:00,
2013-03-01 03:17:00,32.4,7.8,30.40,NNW,333,0.0,0.0,35,0.00,,,0.00,LWC V2.11 B50,2013-03-01 10:17:00,
2013-03-01 03:22:00,32.1,8.2,30.40,NNW,333,0.0,0.0,36,0.00,,,0.00,LWC V2.11 B50,2013-03-01 10:22:00,
2013-03-01 03:27:00,31.7,7.8,30.40,NNW,333,0.0,0.0,36,0.00,,,0.00,LWC V2.11 B50,2013-03-01 10:27:00,
2013-03-01 03:32:00,31.5,8.3,30.40,West,263,1.0,1.0,37,0.00,,,0.00,LWC V2.11 B50,2013-03-01 10:32:00,
2013-03-01 03:37:00,31.5,8.3,30.40,WSW,249,0.0,0.0,37,0.00,,,0.00,LWC V2.11 B50,2013-03-01 10:37:00,
2013-03-01 03:42:00,31.7,8.4,30.40,WSW,249,0.0,0.0,37,0.00,,,0.00,LWC V2.11 B50,2013-03-01 10:42:00,
2013-03-01 03:47:00,31.6,8.4,30.40,WSW,249,0.0,0.0,37,0.00,,,0.00,LWC V2.11 B50,2013-03-01 10:47:00,
2013-03-01 03:52:00,31.4,8.2,30.40,WSW,249,0.0,0.0,37,0.00,,,0.00,LWC V2.11 B50,2013-03-01 10:52:00,
2013-03-01 03:57:00,31.5,8.3,30.40,WSW,249,0.0,0.0,37,0.00,,,0.00,LWC V2.11 B50,2013-03-01 10:57:00,
2013-03-01 04:02:00,31.5,8.9,30.40,WSW,249,0.0,1.0,38,0.00,,,0.00,LWC V2.11 B50,2013-03-01 11:02:00,
2013-03-01 04:07:00,31.7,9.0,30.41,SSW,205,0.0,0.0,38,0.00,,,0.00,LWC V2.11 B50,2013-03-01 11:07:00,
2013-03-01 04:12:00,31.8,8.5,30.40,SSW,205,0.0,0.0,37,0.00,,,0.00,LWC V2.11 B50,2013-03-01 11:12:00,
2013-03-01 04:17:00,31.7,8.4,30.40,SSW,205,0.0,0.0,37,0.00,,,0.00,LWC V2.11 B50,2013-03-01 11:17:00,
2013-03-01 04:22:00,31.4,8.2,30.41,SSW,205,0.0,0.0,37,0.00,,,0.00,LWC V2.11 B50,2013-03-01 11:22:00,
2013-03-01 04:27:00,31.1,8.5,30.41,SSW,205,0.0,0.0,38,0.00,,,0.00,LWC V2.11 B50,2013-03-01 11:27:00,
2013-03-01 04:32:00,30.8,8.2,30.41,SSW,205,0.0,0.0,38,0.00,,,0.00,LWC V2.11 B50,2013-03-01 11:32:00,
2013-03-01 04:37:00,30.6,8.6,30.40,SSW,205,0.0,0.0,39,0.00,,,0.00,LWC V2.11 B50,2013-03-01 11:37:00,
2013-03-01 04:42:00,30.3,8.9,30.40,SSW,205,0.0,0.0,40,0.00,,,0.00,LWC V2.11 B50,2013-03-01 11:42:00,
2013-03-01 04:47:00,30.0,9.2,30.40,SSW,205,0.0,0.0,41,0.00,,,0.00,LWC V2.11 B50,2013-03-01 11:47:00,
2013-03-01 04:52:00,29.7,8.9,30.41,SSW,205,0.0,0.0,41,0.00,,,0.00,LWC V2.11 B50,2013-03-01 11:52:00,
2013-03-01 04:55:00,29.6,8.8,30.40,SSW,205,0.0,0.0,41,0.00,,,0.00,LWC V2.11 B50,2013-03-01 11:55:00,
2013-03-01 05:00:00,29.3,9.1,30.41,SSW,205,0.0,0.0,42,0.00,,,0.00,LWC V2.11 B50,2013-03-01 12:00:00,
2013-03-01 05:05:00,29.2,9.0,30.41,SSW,205,0.0,0.0,42,0.00,,,0.00,LWC V2.11 B50,2013-03-01 12:05:00,
2013-03-01 05:10:00,29.2,9.0,30.41,SSW,205,0.0,0.0,42,0.00,,,0.00,LWC V2.11 B50,2013-03-01 12:10:00,
2013-03-01 05:15:00,29.0,8.8,30.41,SSW,205,0.0,0.0,42,0.00,,,0.00,LWC V2.11 B50,2013-03-01 12:15:00,
2013-03-01 05:20:00,28.8,8.6,30.41,SSW,205,0.0,0.0,42,0.00,,,0.00,LWC V2.11 B50,2013-03-01 12:20:00,
2013-03-01 05:25:00,28.4,7.7,30.41,North,9,0.0,1.0,41,0.00,,,0.00,LWC V2.11 B50,2013-03-01 12:25:00,
2013-03-01 05:30:00,28.5,8.9,30.41,NNE,30,0.0,3.0,43,0.00,,,0.00,LWC V2.11 B50,2013-03-01 12:30:00,
2013-03-01 05:35:00,28.8,8.6,30.41,NNE,13,0.0,0.0,42,0.00,,,0.00,LWC V2.11 B50,2013-03-01 12:35:00,
2013-03-01 05:40:00,29.1,9.4,30.41,NNE,22,1.0,3.0,43,0.00,,,0.00,LWC V2.11 B50,2013-03-01 12:40:00,
2013-03-01 05:45:00,30.1,10.3,30.40,North,9,1.0,3.0,43,0.00,,,0.00,LWC V2.11 B50,2013-03-01 12:45:00,
2013-03-01 05:50:00,31.2,10.3,30.40,NW,304,0.0,1.0,41,0.00,,,0.00,LWC V2.11 B50,2013-03-01 12:50:00,
2013-03-01 05:55:00,31.5,10.0,30.41,NNW,348,0.0,0.0,40,0.00,,,0.00,LWC V2.11 B50,2013-03-01 12:55:00,
2013-03-01 06:00:00,31.5,10.0,30.41,NNW,346,0.0,0.0,40,0.00,,,0.00,LWC V2.11 B50,2013-03-01 13:00:00,
2013-03-01 06:05:00,31.5,10.0,30.41,NNW,336,0.0,0.0,40,0.00,,,0.00,LWC V2.11 B50,2013-03-01 13:05:00,
2013-03-01 06:10:00,31.4,9.9,30.41,NNW,336,0.0,0.0,40,0.00,,,0.00,LWC V2.11 B50,2013-03-01 13:10:00,
2013-03-01 06:15:00,31.0,8.4,30.42,NNW,336,0.0,0.0,38,0.00,,,0.00,LWC V2.11 B50,2013-03-01 13:15:00,
2013-03-01 06:20:00,30.3,8.3,30.42,NNW,336,0.0,0.0,39,0.00,,,0.00,LWC V2.11 B50,2013-03-01 13:20:00,
2013-03-01 06:25:00,29.7,8.4,30.42,NNW,336,0.0,0.0,40,0.00,,,0.00,LWC V2.11 B50,2013-03-01 13:25:00,
2013-03-01 06:30:00,29.1,8.4,30.42,NNW,336,0.0,0.0,41,0.00,,,0.00,LWC V2.11 B50,2013-03-01 13:30:00,
2013-03-01 06:35:00,28.9,8.7,30.43,NNW,336,0.0,0.0,42,0.00,,,0.00,LWC V2.11 B50,2013-03-01 13:35:00,
2013-03-01 06:40:00,28.8,8.6,30.43,NNW,336,0.0,0.0,42,0.00,,,0.00,LWC V2.11 B50,2013-03-01 13:40:00,
2013-03-01 06:45:00,28.9,9.2,30.43,NW,306,0.0,2.0,43,0.00,,,0.00,LWC V2.11 B50,2013-03-01 13:45:00,
2013-03-01 06:50:00,29.4,9.7,30.43,NW,321,3.0,4.0,43,0.00,,,0.00,LWC V2.11 B50,2013-03-01 13:50:00,
2013-03-01 06:55:00,30.3,10.0,30.43,NW,317,3.0,5.0,42,0.00,,,0.00,LWC V2.11 B50,2013-03-01 13:55:00,
2013-03-01 07:00:00,31.4,10.5,30.43,NNW,338,4.0,4.0,41,0.00,,,0.00,LWC V2.11 B50,2013-03-01 14:00:00,
2013-03-01 07:05:00,31.9,10.9,30.43,NNW,332,3.0,6.0,41,0.00,,,0.00,LWC V2.11 B50,2013-03-01 14:05:00,
2013-03-01 07:10:00,32.9,11.3,30.43,West,275,2.0,4.0,40,0.00,,,0.00,LWC V2.11 B50,2013-03-01 14:10:00,
2013-03-01 07:15:00,34.1,11.2,30.43,NW,319,0.0,5.0,38,0.00,,,0.00,LWC V2.11 B50,2013-03-01 14:15:00,
2013-03-01 07:20:00,35.1,11.5,30.43,ENE,64,2.0,7.0,37,0.00,,,0.00,LWC V2.11 B50,2013-03-01 14:20:00,
2013-03-01 07:25:00,36.0,11.7,30.44,ENE,71,3.0,7.0,36,0.00,,,0.00,LWC V2.11 B50,2013-03-01 14:25:00,
2013-03-01 07:30:00,36.8,11.7,30.44,North,9,1.0,6.0,35,0.00,,,0.00,LWC V2.11 B50,2013-03-01 14:30:00,
2013-03-01 07:35:00,37.3,11.5,30.44,NE,43,5.0,5.0,34,0.00,,,0.00,LWC V2.11 B50,2013-03-01 14:35:00,
2013-03-01 07:40:00,37.6,11.8,30.44,SSW,198,1.0,6.0,34,0.00,,,0.00,LWC V2.11 B50,2013-03-01 14:40:00,
2013-03-01 07:45:00,38.0,11.5,30.45,NNE,12,0.0,5.0,33,0.00,,,0.00,LWC V2.11 B50,2013-03-01 14:45:00,
2013-03-01 07:50:00,38.3,11.7,30.44,NNW,329,3.0,6.0,33,0.00,,,0.00,LWC V2.11 B50,2013-03-01 14:50:00,
2013-03-01 07:55:00,38.8,11.5,30.44,NNE,13,0.0,7.0,32,0.00,,,0.00,LWC V2.11 B50,2013-03-01 14:55:00,
2013-03-01 08:00:00,39.2,11.8,30.45,NE,34,2.0,4.0,32,0.00,,,0.00,LWC V2.11 B50,2013-03-01 15:00:00,
2013-03-01 08:05:00,39.6,11.5,30.45,North,350,5.0,10.0,31,0.00,,,0.00,LWC V2.11 B50,2013-03-01 15:05:00,
2013-03-01 08:10:00,40.0,11.8,30.45,WNW,288,4.0,7.0,31,0.00,,,0.00,LWC V2.11 B50,2013-03-01 15:10:00,
2013-03-01 08:15:00,40.3,11.4,30.45,SE,124,2.0,8.0,30,0.00,,,0.00,LWC V2.11 B50,2013-03-01 15:15:00,
2013-03-01 08:20:00,40.5,11.5,30.46,North,355,0.0,11.0,30,0.00,,,0.00,LWC V2.11 B50,2013-03-01 15:20:00,
2013-03-01 08:25:00,40.8,11.8,30.46,North,0,6.0,6.0,30,0.00,,,0.00,LWC V2.11 B50,2013-03-01 15:25:00,
2013-03-01 08:30:00,41.2,12.1,30.46,NE,40,6.0,10.0,30,0.00,,,0.00,LWC V2.11 B50,2013-03-01 15:30:00,
2013-03-01 08:35:00,41.6,11.7,30.45,NNW,342,6.0,9.0,29,0.00,,,0.00,LWC V2.11 B50,2013-03-01 15:35:00,
2013-03-01 08:40:00,42.1,12.2,30.45,NNW,340,2.0,7.0,29,0.00,,,0.00,LWC V2.11 B50,2013-03-01 15:40:00,
2013-03-01 08:45:00,42.6,11.8,30.46,NNE,14,0.0,7.0,28,0.00,,,0.00,LWC V2.11 B50,2013-03-01 15:45:00,
2013-03-01 08:50:00,43.1,12.2,30.46,ENE,64,0.0,7.0,28,0.00,,,0.00,LWC V2.11 B50,2013-03-01 15:50:00,
2013-03-01 08:55:00,43.6,12.7,30.46,NNE,18,0.0,11.0,28,0.00,,,0.00,LWC V2.11 B50,2013-03-01 15:55:00,
2013-03-01 09:01:00,44.1,12.3,30.46,NE,34,3.0,11.0,27,0.00,,,0.00,LWC V2.11 B50,2013-03-01 16:01:00,
2013-03-01 09:06:00,44.6,12.7,30.46,NNW,336,6.0,10.0,27,0.00,,,0.00,LWC V2.11 B50,2013-03-01 16:06:00,
2013-03-01 09:10:00,45.1,13.1,30.45,ENE,62,9.0,9.0,27,0.00,,,0.00,LWC V2.11 B50,2013-03-01 16:10:00,
2013-03-01 09:15:00,45.4,13.4,30.45,North,9,3.0,8.0,27,0.00,,,0.00,LWC V2.11 B50,2013-03-01 16:15:00,
2013-03-01 09:21:00,45.6,13.6,30.44,NNE,26,5.0,7.0,27,0.00,,,0.00,LWC V2.11 B50,2013-03-01 16:21:00,
2013-03-01 09:26:00,46.0,13.9,30.44,NNW,345,6.0,8.0,27,0.00,,,0.00,LWC V2.11 B50,2013-03-01 16:26:00,
2013-03-01 09:31:00,46.3,14.2,30.43,NNE,24,7.0,7.0,27,0.00,,,0.00,LWC V2.11 B50,2013-03-01 16:31:00,
2013-03-01 09:36:00,46.6,13.6,30.44,North,355,6.0,9.0,26,0.00,,,0.00,LWC V2.11 B50,2013-03-01 16:36:00,
2013-03-01 09:41:00,47.1,14.0,30.44,NNW,341,2.0,9.0,26,0.00,,,0.00,LWC V2.11 B50,2013-03-01 16:41:00,
2013-03-01 09:46:00,47.7,14.5,30.44,North,5,3.0,8.0,26,0.00,,,0.00,LWC V2.11 B50,2013-03-01 16:46:00,
2013-03-01 09:51:00,48.1,14.9,30.44,NNW,348,3.0,10.0,26,0.00,,,0.00,LWC V2.11 B50,2013-03-01 16:51:00,
2013-03-01 09:56:00,48.0,14.8,30.44,ENE,71,5.0,8.0,26,0.00,,,0.00,LWC V2.11 B50,2013-03-01 16:56:00,
2013-03-01 10:01:00,48.3,15.0,30.43,WNW,300,6.0,10.0,26,0.00,,,0.00,LWC V2.11 B50,2013-03-01 17:01:00,
2013-03-01 10:06:00,48.6,14.4,30.43,NE,49,6.0,7.0,25,0.00,,,0.00,LWC V2.11 B50,2013-03-01 17:06:00,
2013-03-01 10:11:00,48.7,14.5,30.43,NE,40,3.0,11.0,25,0.00,,,0.00,LWC V2.11 B50,2013-03-01 17:11:00,
2013-03-01 10:16:00,48.8,14.6,30.43,NNE,20,0.0,7.0,25,0.00,,,0.00,LWC V2.11 B50,2013-03-01 17:16:00,
2013-03-01 10:21:00,49.2,14.9,30.43,NW,325,2.0,12.0,25,0.00,,,0.00,LWC V2.11 B50,2013-03-01 17:21:00,
2013-03-01 10:26:00,49.8,15.4,30.43,NNE,21,6.0,8.0,25,0.00,,,0.00,LWC V2.11 B50,2013-03-01 17:26:00,
2013-03-01 10:31:00,50.3,15.8,30.43,NNE,23,3.0,7.0,25,0.00,,,0.00,LWC V2.11 B50,2013-03-01 17:31:00,
2013-03-01 10:36:00,50.4,15.0,30.43,ENE,65,11.0,11.0,24,0.00,,,0.00,LWC V2.11 B50,2013-03-01 17:36:00,
2013-03-01 10:41:00,50.6,15.2,30.43,WNW,290,3.0,8.0,24,0.00,,,0.00,LWC V2.11 B50,2013-03-01 17:41:00,
2013-03-01 10:46:00,51.0,15.5,30.43,NNW,333,2.0,7.0,24,0.00,,,0.00,LWC V2.11 B50,2013-03-01 17:46:00,
2013-03-01 10:51:00,51.5,15.9,30.43,West,279,4.0,7.0,24,0.00,,,0.00,LWC V2.11 B50,2013-03-01 17:51:00,
2013-03-01 10:56:00,51.7,15.1,30.42,NNW,331,4.0,9.0,23,0.00,,,0.00,LWC V2.11 B50,2013-03-01 17:56:00,
2013-03-01 11:01:00,51.7,15.1,30.42,ENE,71,0.0,3.0,23,0.00,,,0.00,LWC V2.11 B50,2013-03-01 18:01:00,
2013-03-01 11:06:00,52.1,15.5,30.42,NNE,20,1.0,8.0,23,0.00,,,0.00,LWC V2.11 B50,2013-03-01 18:06:00,
2013-03-01 11:11:00,52.6,15.9,30.42,NE,37,2.0,5.0,23,0.00,,,0.00,LWC V2.11 B50,2013-03-01 18:11:00,
2013-03-01 11:16:00,52.9,16.1,30.42,NNE,33,0.0,3.0,23,0.00,,,0.00,LWC V2.11 B50,2013-03-01 18:16:00,
2013-03-01 11:21:00,53.3,16.5,30.42,WNW,298,3.0,4.0,23,0.00,,,0.00,LWC V2.11 B50,2013-03-01 18:21:00,
2013-03-01 11:26:00,53.5,15.6,30.42,NNW,329,2.0,8.0,22,0.00,,,0.00,LWC V2.11 B50,2013-03-01 18:26:00,
2013-03-01 11:31:00,53.8,15.9,30.42,NW,319,4.0,10.0,22,0.00,,,0.00,LWC V2.11 B50,2013-03-01 18:31:00,
2013-03-01 11:36:00,54.0,16.0,30.41,NNE,16,5.0,7.0,22,0.00,,,0.00,LWC V2.11 B50,2013-03-01 18:36:00,
2013-03-01 11:41:00,54.5,16.5,30.41,NNE,33,0.0,5.0,22,0.00,,,0.00,LWC V2.11 B50,2013-03-01 18:41:00,
2013-03-01 11:46:00,54.9,16.8,30.41,NNE,30,4.0,7.0,22,0.00,,,0.00,LWC V2.11 B50,2013-03-01 18:46:00,
2013-03-01 11:51:00,55.0,16.9,30.40,North,355,2.0,4.0,22,0.00,,,0.00,LWC V2.11 B50,2013-03-01 18:51:00,
2013-03-01 11:56:00,55.1,17.0,30.40,NNW,333,2.0,10.0,22,0.00,,,0.00,LWC V2.11 B50,2013-03-01 18:56:00,
2013-03-01 12:01:00,55.7,17.5,30.40,ESE,106,1.0,6.0,22,0.00,,,0.00,LWC V2.11 B50,2013-03-01 19:01:00,
2013-03-01 12:06:00,56.0,16.6,30.39,North,11,1.0,7.0,21,0.00,,,0.00,LWC V2.11 B50,2013-03-01 19:06:00,
2013-03-01 12:11:00,55.8,17.5,30.39,NE,38,2.0,9.0,22,0.00,,,0.00,LWC V2.11 B50,2013-03-01 19:11:00,
2013-03-01 12:16:00,56.0,17.7,30.39,NNE,29,1.0,7.0,22,0.00,,,0.00,LWC V2.11 B50,2013-03-01 19:16:00,
2013-03-01 12:21:00,56.4,17.0,30.39,WNW,283,6.0,13.0,21,0.00,,,0.00,LWC V2.11 B50,2013-03-01 19:21:00,
2013-03-01 12:26:00,56.0,17.7,30.38,NW,322,18.0,18.0,22,0.00,,,0.00,LWC V2.11 B50,2013-03-01 19:26:00,
2013-03-01 12:31:00,55.8,17.5,30.38,NW,311,4.0,9.0,22,0.00,,,0.00,LWC V2.11 B50,2013-03-01 19:31:00,
2013-03-01 12:36:00,55.8,17.5,30.37,WNW,302,8.0,12.0,22,0.00,,,0.00,LWC V2.11 B50,2013-03-01 19:36:00,
2013-03-01 12:41:00,55.9,17.6,30.37,NW,311,7.0,9.0,22,0.00,,,0.00,LWC V2.11 B50,2013-03-01 19:41:00,
2013-03-01 12:46:00,56.4,17.0,30.37,WNW,303,11.0,13.0,21,0.00,,,0.00,LWC V2.11 B50,2013-03-01 19:46:00,
2013-03-01 12:51:00,56.2,16.8,30.36,West,265,3.0,12.0,21,0.00,,,0.00,LWC V2.11 B50,2013-03-01 19:51:00,
2013-03-01 12:56:00,56.5,17.0,30.36,NW,304,3.0,10.0,21,0.00,,,0.00,LWC V2.11 B50,2013-03-01 19:56:00,
2013-03-01 13:01:00,56.3,16.9,30.35,NNW,340,3.0,6.0,21,0.00,,,0.00,LWC V2.11 B50,2013-03-01 20:01:00,
2013-03-01 13:06:00,56.5,18.1,30.35,NNE,31,1.0,5.0,22,0.00,,,0.00,LWC V2.11 B50,2013-03-01 20:06:00,
2013-03-01 13:11:00,57.3,17.7,30.35,NW,319,9.0,12.0,21,0.00,,,0.00,LWC V2.11 B50,2013-03-01 20:11:00,
2013-03-01 13:16:00,57.6,18.0,30.34,NE,51,2.0,5.0,21,0.00,,,0.00,LWC V2.11 B50,2013-03-01 20:16:00,
2013-03-01 13:21:00,57.7,16.9,30.34,WNW,300,6.0,7.0,20,0.00,,,0.00,LWC V2.11 B50,2013-03-01 20:21:00,
2013-03-01 13:26:00,57.6,16.8,30.34,North,355,2.0,10.0,20,0.00,,,0.00,LWC V2.11 B50,2013-03-01 20:26:00,
2013-03-01 13:31:00,58.0,17.2,30.33,ENE,59,0.0,7.0,20,0.00,,,0.00,LWC V2.11 B50,2013-03-01 20:31:00,
2013-03-01 13:36:00,58.0,17.2,30.33,WNW,298,4.0,13.0,20,0.00,,,0.00,LWC V2.11 B50,2013-03-01 20:36:00,
2013-03-01 13:41:00,58.3,17.4,30.33,NNW,346,3.0,7.0,20,0.00,,,0.00,LWC V2.11 B50,2013-03-01 20:41:00,
2013-03-01 13:46:00,58.7,16.6,30.33,WNW,300,7.0,9.0,19,0.00,,,0.00,LWC V2.11 B50,2013-03-01 20:46:00,
2013-03-01 13:51:00,58.6,16.5,30.33,NW,322,8.0,16.0,19,0.00,,,0.00,LWC V2.11 B50,2013-03-01 20:51:00,
2013-03-01 13:56:00,58.4,16.3,30.32,NNW,342,3.0,10.0,19,0.00,,,0.00,LWC V2.11 B50,2013-03-01 20:56:00,
2013-03-01 14:01:00,58.7,16.6,30.32,NW,315,6.0,12.0,19,0.00,,,0.00,LWC V2.11 B50,2013-03-01 21:01:00,
2013-03-01 14:06:00,58.7,17.7,30.32,West,272,5.0,12.0,20,0.00,,,0.00,LWC V2.11 B50,2013-03-01 21:06:00,
2013-03-01 14:11:00,58.9,16.7,30.32,West,278,6.0,15.0,19,0.00,,,0.00,LWC V2.11 B50,2013-03-01 21:11:00,
2013-03-01 14:16:00,59.0,16.8,30.32,NW,307,5.0,8.0,19,0.00,,,0.00,LWC V2.11 B50,2013-03-01 21:16:00,
2013-03-01 14:21:00,59.6,17.3,30.31,North,355,4.0,8.0,19,0.00,,,0.00,LWC V2.11 B50,2013-03-01 21:21:00,
2013-03-01 14:26:00,60.1,16.5,30.32,ESE,119,0.0,7.0,18,0.00,,,0.00,LWC V2.11 B50,2013-03-01 21:26:00,
2013-03-01 14:31:00,60.3,16.6,30.31,WSW,250,0.0,10.0,18,0.00,,,0.00,LWC V2.11 B50,2013-03-01 21:31:00,
2013-03-01 14:36:00,60.5,16.8,30.31,West,277,1.0,10.0,18,0.00,,,0.00,LWC V2.11 B50,2013-03-01 21:36:00,
2013-03-01 14:41:00,60.5,16.8,30.31,ENE,62,1.0,5.0,18,0.00,,,0.00,LWC V2.11 B50,2013-03-01 21:41:00,
2013-03-01 14:46:00,61.1,17.3,30.31,NNE,17,5.0,10.0,18,0.00,,,0.00,LWC V2.11 B50,2013-03-01 21:46:00,
2013-03-01 14:51:00,60.8,17.0,30.31,NNW,333,13.0,13.0,18,0.00,,,0.00,LWC V2.11 B50,2013-03-01 21:51:00,
2013-03-01 14:56:00,60.6,16.9,30.31,NW,308,8.0,9.0,18,0.00,,,0.00,LWC V2.11 B50,2013-03-01 21:56:00,
2013-03-01 15:01:00,60.7,17.0,30.30,WNW,294,7.0,8.0,18,0.00,,,0.00,LWC V2.11 B50,2013-03-01 22:01:00,
2013-03-01 15:06:00,60.2,16.5,30.30,NNE,13,2.0,10.0,18,0.00,,,0.00,LWC V2.11 B50,2013-03-01 22:06:00,
2013-03-01 15:11:00,59.9,16.3,30.30,NW,307,5.0,10.0,18,0.00,,,0.00,LWC V2.11 B50,2013-03-01 22:11:00,
2013-03-01 15:16:00,59.7,17.4,30.30,WNW,294,3.0,15.0,19,0.00,,,0.00,LWC V2.11 B50,2013-03-01 22:16:00,
2013-03-01 15:21:00,59.8,17.5,30.29,WNW,284,4.0,5.0,19,0.00,,,0.00,LWC V2.11 B50,2013-03-01 22:21:00,
2013-03-01 15:26:00,60.2,17.8,30.29,West,259,9.0,12.0,19,0.00,,,0.00,LWC V2.11 B50,2013-03-01 22:26:00,
2013-03-01 15:31:00,60.3,17.9,30.29,East,79,1.0,14.0,19,0.00,,,0.00,LWC V2.11 B50,2013-03-01 22:31:00,
2013-03-01 15:36:00,60.1,17.7,30.29,North,351,6.0,10.0,19,0.00,,,0.00,LWC V2.11 B50,2013-03-01 22:36:00,
2013-03-01 15:41:00,60.0,17.6,30.29,West,265,4.0,6.0,19,0.00,,,0.00,LWC V2.11 B50,2013-03-01 22:41:00,
2013-03-01 15:46:00,59.9,17.6,30.29,NNE,13,7.0,8.0,19,0.00,,,0.00,LWC V2.11 B50,2013-03-01 22:46:00,
2013-03-01 15:51:00,59.9,17.6,30.28,NW,326,6.0,6.0,19,0.00,,,0.00,LWC V2.11 B50,2013-03-01 22:51:00,
2013-03-01 15:56:00,60.2,17.8,30.28,WNW,302,12.0,13.0,19,0.00,,,0.00,LWC V2.11 B50,2013-03-01 22:56:00,
2013-03-01 16:01:00,59.9,17.6,30.28,NNW,345,6.0,11.0,19,0.00,,,0.00,LWC V2.11 B50,2013-03-01 23:01:00,
2013-03-01 16:06:00,59.9,18.7,30.28,NNW,341,7.0,10.0,20,0.00,,,0.00,LWC V2.11 B50,2013-03-01 23:06:00,
2013-03-01 16:11:00,60.1,18.9,30.28,NNW,339,3.0,9.0,20,0.00,,,0.00,LWC V2.11 B50,2013-03-01 23:11:00,
2013-03-01 16:16:00,60.3,19.1,30.28,WNW,285,8.0,18.0,20,0.00,,,0.00,LWC V2.11 B50,2013-03-01 23:16:00,
2013-03-01 16:21:00,59.9,18.7,30.28,WNW,290,3.0,15.0,20,0.00,,,0.00,LWC V2.11 B50,2013-03-01 23:21:00,
2013-03-01 16:26:00,59.8,18.7,30.28,NW,311,6.0,11.0,20,0.00,,,0.00,LWC V2.11 B50,2013-03-01 23:26:00,
2013-03-01 16:31:00,59.9,18.7,30.28,NW,306,6.0,11.0,20,0.00,,,0.00,LWC V2.11 B50,2013-03-01 23:31:00,
2013-03-01 16:36:00,59.6,18.5,30.28,NW,305,7.0,14.0,20,0.00,,,0.00,LWC V2.11 B50,2013-03-01 23:36:00,
2013-03-01 16:41:00,59.4,19.5,30.28,North,355,1.0,7.0,21,0.00,,,0.00,LWC V2.11 B50,2013-03-01 23:41:00,
2013-03-01 16:46:00,59.3,19.4,30.28,NNW,327,2.0,12.0,21,0.00,,,0.00,LWC V2.11 B50,2013-03-01 23:46:00,
2013-03-01 16:51:00,59.1,19.2,30.28,WNW,301,10.0,14.0,21,0.00,,,0.00,LWC V2.11 B50,2013-03-01 23:51:00,
2013-03-01 16:56:00,58.9,19.0,30.28,NW,308,6.0,13.0,21,0.00,,,0.00,LWC V2.11 B50,2013-03-01 23:56:00,
2013-03-01 17:01:00,58.7,18.9,30.29,WNW,300,2.0,10.0,21,0.00,,,0.00,LWC V2.11 B50,2013-03-02 00:01:00,
2013-03-01 17:06:00,58.6,19.9,30.28,NNE,19,9.0,10.0,22,0.00,,,0.00,LWC V2.11 B50,2013-03-02 00:06:00,
2013-03-01 17:11:00,58.4,19.7,30.29,NW,325,6.0,14.0,22,0.00,,,0.00,LWC V2.11 B50,2013-03-02 00:11:00,
2013-03-01 17:16:00,58.1,19.5,30.29,NW,306,16.0,16.0,22,0.00,,,0.00,LWC V2.11 B50,2013-03-02 00:16:00,
2013-03-01 17:21:00,57.8,19.2,30.29,West,275,6.0,14.0,22,0.00,,,0.00,LWC V2.11 B50,2013-03-02 00:21:00,
2013-03-01 17:26:00,57.6,19.0,30.28,WNW,296,3.0,8.0,22,0.00,,,0.00,LWC V2.11 B50,2013-03-02 00:26:00,
2013-03-01 17:31:00,57.5,19.0,30.29,NW,319,5.0,13.0,22,0.00,,,0.00,LWC V2.11 B50,2013-03-02 00:31:00,
2013-03-01 17:36:00,57.2,19.7,30.29,NNW,338,7.0,11.0,23,0.00,,,0.00,LWC V2.11 B50,2013-03-02 00:36:00,
2013-03-01 17:41:00,56.9,19.5,30.29,WNW,302,2.0,9.0,23,0.00,,,0.00,LWC V2.11 B50,2013-03-02 00:41:00,
2013-03-01 17:46:00,56.6,19.2,30.29,WNW,292,3.0,7.0,23,0.00,,,0.00,LWC V2.11 B50,2013-03-02 00:46:00,
2013-03-01 17:51:00,56.2,19.9,30.30,NW,305,2.0,13.0,24,0.00,,,0.00,LWC V2.11 B50,2013-03-02 00:51:00,
2013-03-01 17:56:00,55.8,19.6,30.30,NW,313,3.0,13.0,24,0.00,,,0.00,LWC V2.11 B50,2013-03-02 00:56:00,
2013-03-01 18:01:00,55.5,19.3,30.30,NW,321,4.0,10.0,24,0.00,,,0.00,LWC V2.11 B50,2013-03-02 01:01:00,
2013-03-01 18:06:00,55.1,19.9,30.30,NW,320,6.0,7.0,25,0.00,,,0.00,LWC V2.11 B50,2013-03-02 01:06:00,
2013-03-01 18:11:00,54.7,19.6,30.30,NW,313,3.0,7.0,25,0.00,,,0.00,LWC V2.11 B50,2013-03-02 01:11:00,
2013-03-01 18:16:00,54.4,19.3,30.30,NW,317,5.0,7.0,25,0.00,,,0.00,LWC V2.11 B50,2013-03-02 01:16:00,
2013-03-01 18:21:00,54.0,19.0,30.30,NNW,332,1.0,9.0,25,0.00,,,0.00,LWC V2.11 B50,2013-03-02 01:21:00,
2013-03-01 18:26:00,53.7,19.6,30.31,NW,316,7.0,10.0,26,0.00,,,0.00,LWC V2.11 B50,2013-03-02 01:26:00,
2013-03-01 18:31:00,53.2,19.2,30.31,West,281,1.0,11.0,26,0.00,,,0.00,LWC V2.11 B50,2013-03-02 01:31:00,
2013-03-01 18:36:00,52.8,18.9,30.31,NW,315,7.0,11.0,26,0.00,,,0.00,LWC V2.11 B50,2013-03-02 01:36:00,
2013-03-01 18:41:00,52.6,18.7,30.31,West,281,5.0,7.0,26,0.00,,,0.00,LWC V2.11 B50,2013-03-02 01:41:00,
2013-03-01 18:46:00,52.1,19.2,30.31,NW,316,3.0,6.0,27,0.00,,,0.00,LWC V2.11 B50,2013-03-02 01:46:00,
2013-03-01 18:51:00,51.6,18.7,30.31,WNW,296,4.0,9.0,27,0.00,,,0.00,LWC V2.11 B50,2013-03-02 01:51:00,
2013-03-01 18:56:00,51.2,18.4,30.32,NW,306,2.0,7.0,27,0.00,,,0.00,LWC V2.11 B50,2013-03-02 01:56:00,
2013-03-01 19:01:00,50.7,18.8,30.32,NW,309,1.0,6.0,28,0.00,,,0.00,LWC V2.11 B50,2013-03-02 02:01:00,
2013-03-01 19:06:00,50.5,18.6,30.32,West,263,3.0,7.0,28,0.00,,,0.00,LWC V2.11 B50,2013-03-02 02:06:00,
2013-03-01 19:11:00,50.4,18.5,30.32,WNW,290,1.0,9.0,28,0.00,,,0.00,LWC V2.11 B50,2013-03-02 02:11:00,
2013-03-01 19:16:00,50.3,18.5,30.32,WNW,300,5.0,6.0,28,0.00,,,0.00,LWC V2.11 B50,2013-03-02 02:16:00,
2013-03-01 19:21:00,50.1,19.1,30.32,West,271,1.0,7.0,29,0.00,,,0.00,LWC V2.11 B50,2013-03-02 02:21:00,
2013-03-01 19:26:00,50.1,19.1,30.32,NW,306,1.0,10.0,29,0.00,,,0.00,LWC V2.11 B50,2013-03-02 02:26:00,
2013-03-01 19:30:00,50.3,19.3,30.32,WNW,293,1.0,6.0,29,0.00,,,0.00,LWC V2.11 B50,2013-03-02 02:30:00,
2013-03-01 19:35:00,50.5,19.4,30.32,WNW,289,4.0,9.0,29,0.00,,,0.00,LWC V2.11 B50,2013-03-02 02:35:00,
2013-03-01 19:40:00,50.4,19.4,30.32,WNW,288,3.0,7.0,29,0.00,,,0.00,LWC V2.11 B50,2013-03-02 02:40:00,
2013-03-01 19:45:00,50.2,19.2,30.32,NW,318,6.0,6.0,29,0.00,,,0.00,LWC V2.11 B50,2013-03-02 02:45:00,
2013-03-01 19:50:00,50.1,19.9,30.32,NW,321,1.0,4.0,30,0.00,,,0.00,LWC V2.11 B50,2013-03-02 02:50:00,
2013-03-01 19:55:00,49.9,19.7,30.33,NW,321,2.0,3.0,30,0.00,,,0.00,LWC V2.11 B50,2013-03-02 02:55:00,
2013-03-01 20:00:00,49.7,19.5,30.33,NW,313,4.0,6.0,30,0.00,,,0.00,LWC V2.11 B50,2013-03-02 03:00:00,
2013-03-01 20:05:00,49.5,19.4,30.33,NNW,342,6.0,10.0,30,0.00,,,0.00,LWC V2.11 B50,2013-03-02 03:05:00,
2013-03-01 20:10:00,49.1,19.8,30.33,NW,312,2.0,10.0,31,0.00,,,0.00,LWC V2.11 B50,2013-03-02 03:10:00,
2013-03-01 20:15:00,48.6,19.3,30.33,NW,313,4.0,7.0,31,0.00,,,0.00,LWC V2.11 B50,2013-03-02 03:15:00,
2013-03-01 20:20:00,48.2,19.7,30.33,NW,306,8.0,13.0,32,0.00,,,0.00,LWC V2.11 B50,2013-03-02 03:20:00,
2013-03-01 20:25:00,48.0,19.6,30.33,WNW,299,9.0,9.0,32,0.00,,,0.00,LWC V2.11 B50,2013-03-02 03:25:00,
2013-03-01 20:30:00,48.0,19.6,30.33,West,280,4.0,7.0,32,0.00,,,0.00,LWC V2.11 B50,2013-03-02 03:30:00,
2013-03-01 20:35:00,48.4,19.9,30.33,WNW,298,10.0,16.0,32,0.00,,,0.00,LWC V2.11 B50,2013-03-02 03:35:00,
2013-03-01 20:40:00,48.9,20.4,30.33,West,270,10.0,13.0,32,0.00,,,0.00,LWC V2.11 B50,2013-03-02 03:40:00,
2013-03-01 20:45:00,48.9,20.4,30.33,NW,319,11.0,14.0,32,0.00,,,0.00,LWC V2.11 B50,2013-03-02 03:45:00,
2013-03-01 20:50:00,49.0,20.4,30.33,NW,326,7.0,13.0,32,0.00,,,0.00,LWC V2.11 B50,2013-03-02 03:50:00,
2013-03-01 20:55:00,49.2,20.6,30.34,NW,323,2.0,9.0,32,0.00,,,0.00,LWC V2.11 B50,2013-03-02 03:55:00,
2013-03-01 21:00:00,49.2,20.6,30.34,NW,309,5.0,7.0,32,0.00,,,0.00,LWC V2.11 B50,2013-03-02 04:00:00,
2013-03-01 21:05:00,49.2,20.6,30.34,NW,323,3.0,6.0,32,0.00,,,0.00,LWC V2.11 B50,2013-03-02 04:05:00,
2013-03-01 21:10:00,49.0,20.4,30.34,West,267,2.0,7.0,32,0.00,,,0.00,LWC V2.11 B50,2013-03-02 04:10:00,
2013-03-01 21:15:00,48.5,20.7,30.35,NW,312,1.0,5.0,33,0.00,,,0.00,LWC V2.11 B50,2013-03-02 04:15:00,
2013-03-01 21:20:00,47.9,20.2,30.35,NW,311,0.0,1.0,33,0.00,,,0.00,LWC V2.11 B50,2013-03-02 04:20:00,
2013-03-01 21:25:00,47.5,20.5,30.35,WNW,297,0.0,1.0,34,0.00,,,0.00,LWC V2.11 B50,2013-03-02 04:25:00,
2013-03-01 21:30:00,47.4,20.5,30.35,NNE,33,2.0,2.0,34,0.00,,,0.00,LWC V2.11 B50,2013-03-02 04:30:00,
2013-03-01 21:35:00,47.4,20.5,30.35,ENE,69,2.0,7.0,34,0.00,,,0.00,LWC V2.11 B50,2013-03-02 04:35:00,
2013-03-01 21:40:00,47.5,20.5,30.35,North,9,0.0,4.0,34,0.00,,,0.00,LWC V2.11 B50,2013-03-02 04:40:00,
2013-03-01 21:45:00,47.5,21.2,30.35,NE,49,0.0,1.0,35,0.00,,,0.00,LWC V2.11 B50,2013-03-02 04:45:00,
2013-03-01 21:50:00,47.5,21.2,30.36,NNE,15,0.0,1.0,35,0.00,,,0.00,LWC V2.11 B50,2013-03-02 04:50:00,
2013-03-01 21:55:00,47.3,21.0,30.36,ENE,74,3.0,3.0,35,0.00,,,0.00,LWC V2.11 B50,2013-03-02 04:55:00,
2013-03-01 22:00:00,47.2,21.0,30.36,NNE,28,1.0,6.0,35,0.00,,,0.00,LWC V2.11 B50,2013-03-02 05:00:00,
2013-03-01 22:05:00,47.1,20.9,30.36,NNW,346,2.0,2.0,35,0.00,,,0.00,LWC V2.11 B50,2013-03-02 05:05:00,
2013-03-01 22:10:00,47.0,20.8,30.36,NE,51,1.0,1.0,35,0.00,,,0.00,LWC V2.11 B50,2013-03-02 05:10:00,
2013-03-01 22:15:00,47.0,20.8,30.36,NNE,27,2.0,4.0,35,0.00,,,0.00,LWC V2.11 B50,2013-03-02 05:15:00,
2013-03-01 22:20:00,47.0,20.8,30.36,NNE,26,1.0,4.0,35,0.00,,,0.00,LWC V2.11 B50,2013-03-02 05:20:00,
2013-03-01 22:25:00,47.1,20.9,30.36,NE,54,2.0,3.0,35,0.00,,,0.00,LWC V2.11 B50,2013-03-02 05:25:00,
2013-03-01 22:30:00,47.0,20.8,30.36,NNE,13,0.0,4.0,35,0.00,,,0.00,LWC V2.11 B50,2013-03-02 05:30:00,
2013-03-01 22:35:00,46.9,20.7,30.36,NNE,13,0.0,0.0,35,0.00,,,0.00,LWC V2.11 B50,2013-03-02 05:35:00,
2013-03-01 22:40:00,46.5,21.0,30.36,NNE,13,1.0,3.0,36,0.00,,,0.00,LWC V2.11 B50,2013-03-02 05:40:00,
2013-03-01 22:45:00,46.4,20.9,30.36,NE,38,0.0,1.0,36,0.00,,,0.00,LWC V2.11 B50,2013-03-02 05:45:00,
2013-03-01 22:50:00,46.3,20.8,30.37,NE,36,0.0,0.0,36,0.00,,,0.00,LWC V2.11 B50,2013-03-02 05:50:00,
2013-03-01 22:55:00,46.1,21.3,30.37,ESE,102,1.0,1.0,37,0.00,,,0.00,LWC V2.11 B50,2013-03-02 05:55:00,
2013-03-01 23:00:00,45.9,21.1,30.37,WSW,239,1.0,4.0,37,0.00,,,0.00,LWC V2.11 B50,2013-03-02 06:00:00,
2013-03-01 23:05:00,46.4,21.6,30.37,North,9,1.0,2.0,37,0.00,,,0.00,LWC V2.11 B50,2013-03-02 06:05:00,
2013-03-01 23:10:00,46.9,22.0,30.37,ENE,74,0.0,5.0,37,0.00,,,0.00,LWC V2.11 B50,2013-03-02 06:10:00,
2013-03-01 23:15:00,47.4,21.8,30.37,NE,45,0.0,2.0,36,0.00,,,0.00,LWC V2.11 B50,2013-03-02 06:15:00,
2013-03-01 23:20:00,47.4,21.1,30.37,NE,38,0.0,1.0,35,0.00,,,0.00,LWC V2.11 B50,2013-03-02 06:20:00,
2013-03-01 23:25:00,47.3,21.7,30.38,ENE,69,0.0,1.0,36,0.00,,,0.00,LWC V2.11 B50,2013-03-02 06:25:00,
2013-03-01 23:30:00,47.0,21.4,30.38,NNE,30,3.0,3.0,36,0.00,,,0.00,LWC V2.11 B50,2013-03-02 06:30:00,
2013-03-01 23:35:00,46.9,22.0,30.38,NE,44,0.0,2.0,37,0.00,,,0.00,LWC V2.11 B50,2013-03-02 06:35:00,
2013-03-01 23:40:00,46.9,22.0,30.38,East,80,1.0,3.0,37,0.00,,,0.00,LWC V2.11 B50,2013-03-02 06:40:00,
2013-03-01 23:45:00,47.0,22.1,30.38,NE,45,2.0,3.0,37,0.00,,,0.00,LWC V2.11 B50,2013-03-02 06:45:00,
2013-03-01 23:50:00,47.0,21.4,30.38,North,5,0.0,0.0,36,0.00,,,0.00,LWC V2.11 B50,2013-03-02 06:50:00,
2013-03-01 23:55:00,46.5,21.0,30.38,North,5,0.0,0.0,36,0.00,,,0.00,LWC V2.11 B50,2013-03-02 06:55:00,